[[{"header":{"parameterUnit":"m.s-1","parameterCategory":1,"la1":30.2991,"la2":30.254,"lo1":-89.0895,"lo2":-89.0444,"dy":0.0017,"dx":0.0017,"nx":28,"ny":28,"refTime":"2023-11-14T09:00:00:Z","depth":0,"parameterNumber":2,"parameterNumberName":"U-component_of_WINDS"},"data":[0,0,0,0,0,0,0,0,0,0,0,0,0,0,0,0,0,0,0,0,0,0,0,0,0,0,0,0,0,0,0,0,0,0,0,0,0,0,0,0,0,0,0,0,0,0,0,0,0,0,0,0,0,0,0,0,0,0,-8.4758,-8.4758,0,-8.4743,-8.4743,-8.4743,-8.4532,-8.4527,-8.4522,-8.4516,-8.4504,-8.4508,-8.4513,0,0,0,0,0,0,0,0,0,0,0,0,0,-8.4605,-8.4609,-8.4758,-8.4758,-8.4757,-8.4743,-8.4743,-8.4743,-8.4533,-8.4527,-8.452,-8.4514,-8.4502,-8.4508,-8.4514,0,0,0,0,0,0,0,0,0,0,0,0,0,-8.4639,-8.461,-8.4758,-8.4651,-8.4641,-8.4743,-8.4743,-8.4743,-8.4535,-8.4526,-8.4518,-8.4511,-8.4501,-8.4507,-8.4514,-8.4718,0,0,-8.4536,-8.4539,0,0,0,0,0,0,0,0,-8.4638,-8.4645,-8.4667,-8.4659,-8.4648,-8.4631,-8.4684,-8.4735,-8.4537,-8.4575,-8.4516,-8.4507,-8.4553,-8.4555,-8.457,-8.4718,-8.4717,-8.4536,-8.454,-8.4543,-8.4545,0,0,0,0,0,0,0,-8.4636,-8.4645,-8.4752,-8.4668,-8.4656,-8.4604,-8.46,-8.4693,-8.4609,-8.4571,-8.4556,-8.4557,-8.4546,-8.4564,-8.4568,-8.4717,-8.4536,-8.4542,-8.4547,-8.4549,-8.5029,-8.5037,0,0,0,0,0,0,-8.4648,-8.4644,-8.4752,-8.4751,-8.4623,-8.4614,-8.4609,-8.4645,-8.4608,-8.4594,-8.4564,-8.4547,-8.4556,-8.456,-8.4567,-8.4801,-8.4543,-8.455,-8.4554,-8.502,-8.5031,-8.504,0,0,0,0,0,0,-8.4645,-8.4659,-8.4753,-8.4694,-8.4701,-8.4625,-8.4667,-8.4649,-8.4666,-8.4602,-8.4586,-8.4597,-8.455,-8.4557,-8.4681,-8.4798,-8.4553,-8.4559,-8.501,-8.5024,-8.5035,-8.5274,0,0,0,0,0,0,-8.4642,-8.466,-8.4736,-8.4697,-8.4706,-8.4868,-8.4674,-8.4654,-8.4678,-8.4656,-8.4629,-8.4617,-8.4544,-8.4672,-8.4689,-8.4803,-8.4565,-8.5,-8.5016,-8.5031,-8.5255,-8.5293,-8.5326,0,0,0,0,0,-8.4637,-8.4805,-8.4741,-8.4756,-8.48,-8.4875,-8.488,-8.4792,-8.4689,-8.4765,-8.4724,-8.4618,-8.4783,-8.4687,-8.4703,-8.4822,-8.4992,-8.5012,-8.503,-8.5239,-8.5286,-8.5325,0,0,0,0,0,0,-8.4861,-8.4798,-8.4727,-8.4887,-8.4888,-8.484,-8.4933,-8.4845,-8.4876,-8.4854,-8.4744,-8.474,-8.4881,-8.4864,-8.4758,-8.5017,-8.4869,-8.4893,-8.5022,-8.5066,-8.5101,-8.5101,-8.4571,0,0,0,0,0,-8.4929,-8.4996,-8.4937,-8.5084,-8.5088,-8.5011,-8.5041,-8.4973,-8.497,-8.497,-8.4937,-8.4939,-8.4991,-8.5028,-8.5072,-8.5252,-8.5242,-8.5342,-8.5377,-8.5407,-8.5428,-8.552,-8.5563,-8.5103,-8.5103,-8.5103,0,0,-8.5071,-8.5044,-8.5093,-8.5128,-8.5121,-8.5192,-8.5013,-8.5096,-8.5148,-8.4982,-8.5097,-8.5074,-8.5069,-8.5222,-8.5287,-8.5212,-8.5553,-8.5431,-8.5455,-8.546,-8.5545,-8.5588,-8.5627,-8.5116,-8.5114,-8.5112,0,0,-8.5364,-8.5351,-8.5471,-8.5467,-8.5458,-8.5406,-8.5435,-8.54,-8.5378,-8.5491,-8.5368,-8.5429,-8.5521,-8.5522,-8.5534,-8.5828,-8.5731,-8.5845,-8.6029,-8.6121,-8.6157,-8.6188,-8.6292,-8.633,-8.5867,-8.5868,-8.5868,0,-8.5541,-8.5642,-8.5544,-8.5635,-8.5654,-8.5506,-8.5627,-8.5628,-8.5636,-8.5652,-8.5567,-8.5679,-8.5665,-8.5815,-8.5887,-8.5902,-8.5932,-8.5847,-8.616,-8.619,-8.6218,-8.6315,-8.6355,-8.5881,-8.588,-8.5878,-8.5877,0,-8.5859,-8.5932,-8.603,-8.6039,-8.6068,-8.6174,-8.6092,-8.6135,-8.6064,-8.6021,-8.6138,-8.6116,-8.6153,-8.6184,-8.6117,-8.6325,-8.6278,-8.6179,-8.6027,-8.6278,-8.6367,-8.6403,-8.5901,-8.5896,-8.5892,-8.5889,0,0,-8.6293,-8.6245,-8.6283,-8.6284,-8.6263,-8.6318,-8.6417,-8.6451,-8.6489,-8.6499,-8.6579,-8.666,-8.6567,-8.6582,-8.6513,-8.6594,-8.6826,-8.6484,-8.6482,-8.6547,-8.7052,-8.7126,-8.717,-8.6762,-8.6769,-8.6774,-8.7052,0,-8.6575,-8.6739,-8.6653,-8.6829,-8.6894,-8.6755,-8.6841,-8.6838,-8.68,-8.685,-8.6809,-8.6867,-8.6742,-8.6749,-8.6823,-8.6782,-8.6926,-8.6761,-8.6835,-8.6839,-8.6838,-8.7217,-8.7295,-8.7558,-8.7086,-8.7092,-8.7096,0,-8.6925,-8.6947,-8.713,-8.7095,-8.7119,-8.7198,-8.7222,-8.7272,-8.7265,-8.7232,-8.7249,-8.7161,-8.7255,-8.7107,-8.7235,-8.7126,-8.7151,-8.7136,-8.7144,-8.7145,-8.6981,-8.7228,-8.764,-8.7679,-8.7151,-8.7146,-8.7142,0,-8.7221,-8.7297,-8.7415,-8.7421,-8.7384,-8.7442,-8.743,-8.7415,-8.7441,-8.7463,-8.7479,-8.7513,-8.7531,-8.7559,-8.7482,-8.7382,-8.7621,-8.7467,-8.7596,-8.7598,-8.765,-8.7648,-8.8071,-8.7671,-8.7671,-8.767,-8.7669,0,-8.7542,-8.7659,-8.7547,-8.762,-8.7746,-8.7647,-8.7775,-8.7747,-8.7736,-8.7801,-8.7684,-8.7747,-8.7643,-8.7697,-8.7638,-8.7753,-8.7762,-8.7738,-8.7721,-8.7747,-8.775,-8.7761,-8.774,-8.768,-8.7678,-8.7676,-8.7674,0,-8.7894,-8.7824,-8.7943,-8.7898,-8.7889,-8.7984,-8.7945,-8.8011,-8.7965,-8.8049,-8.8063,-8.7992,-8.8048,-8.7975,-8.8026,-8.7986,-8.8142,-8.8098,-8.8144,-8.813,-8.8262,-8.825,-8.8705,-8.8759,-8.8327,-8.8332,-8.8335,0,-8.8103,-8.8189,-8.8152,-8.8186,-8.818,-8.8238,-8.8263,-8.8169,-8.8201,-8.8199,-8.8265,-8.8312,-8.8343,-8.8441,-8.8394,-8.8432,-8.8387,-8.8544,-8.8392,-8.8416,-8.8387,-8.8382,-8.8389,-8.8575,-8.858,-8.8584,-8.8588,0,-8.8481,-8.8441,-8.8481,-8.851,-8.8543,-8.8562,-8.8572,-8.8607,-8.8508,-8.855,-8.8605,-8.8631,-8.8681,-8.8729,-8.8754,-8.8741,-8.8649,-8.8636,-8.8667,-8.8694,-8.8716,-8.8704,-8.8226,-8.8626,-8.8622,-8.8619,-8.8617,-8.8615,-8.8765,-8.8834,-8.8819,-8.8867,-8.8864,-8.8876,-8.8934,-8.8895,-8.894,-8.8972,-8.8915,-8.8986,-8.8976,-8.9,-8.8998,-8.9052,-8.8984,-8.903,-8.9041,-8.9054,-8.9073,-8.871,-8.9057,-8.9055,-8.9054,-8.9053,-8.9053,0,-8.9135,-8.9118,-8.9163,-8.9179,-8.9218,-8.9126,-8.9132,-8.917,-8.9233,-8.9232,-8.9265,-8.9329,-8.9375,-8.9332,-8.9369,-8.942,-8.9379,-8.9433,-8.9427,-8.9425,-8.9132,-8.91,-8.9466,-8.9466,-8.9466,-8.9466,-8.9466,-8.9466,-8.9331,-8.9442,-8.9402,-8.951,-8.9492,-8.9559,-8.9569,-8.958,-8.9577,-8.9653,-8.969,-8.9661,-8.9643,-8.9677,-8.9715,-8.9701,-8.9719,-8.9789,-8.976,-8.9487,-8.9446,-8.9407,-8.9377,-8.9794,-8.9795,-9.0048,-9.005,-9.0052]},{"header":{"parameterUnit":"m.s-1","parameterCategory":1,"la1":30.2991,"la2":30.254,"lo1":-89.0895,"lo2":-89.0444,"dy":0.0017,"dx":0.0017,"nx":28,"ny":28,"refTime":"2023-11-14T09:00:00:Z","depth":0,"parameterNumber":3,"parameterNumberName":"V-component_of_WINDS"},"data":[0,0,0,0,0,0,0,0,0,0,0,0,0,0,0,0,0,0,0,0,0,0,0,0,0,0,0,0,0,0,0,0,0,0,0,0,0,0,0,0,0,0,0,0,0,0,0,0,0,0,0,0,0,0,0,0,0,0,-4.6549,-4.6547,0,-4.6377,-4.6375,-4.6373,-4.6286,-4.6286,-4.6286,-4.6286,-4.6102,-4.6098,-4.6093,0,0,0,0,0,0,0,0,0,0,0,0,0,-4.6792,-4.6788,-4.6549,-4.6547,-4.6545,-4.6377,-4.6375,-4.6373,-4.6286,-4.6286,-4.6286,-4.6286,-4.6104,-4.6098,-4.6092,0,0,0,0,0,0,0,0,0,0,0,0,0,-4.666,-4.6786,-4.655,-4.6482,-4.6474,-4.6378,-4.6375,-4.6372,-4.6286,-4.6286,-4.6286,-4.6286,-4.6106,-4.6099,-4.6092,-4.6048,0,0,-4.6069,-4.6066,0,0,0,0,0,0,0,0,-4.6667,-4.6651,-4.6494,-4.6486,-4.6477,-4.6353,-4.6393,-4.6263,-4.6286,-4.6357,-4.6286,-4.6286,-4.6185,-4.6172,-4.6139,-4.6039,-4.6031,-4.6069,-4.6064,-4.6061,-4.6059,0,0,0,0,0,0,0,-4.6676,-4.6657,-4.6481,-4.6492,-4.6481,-4.6456,-4.6437,-4.6368,-4.6273,-4.6351,-4.6344,-4.6326,-4.6181,-4.6146,-4.6134,-4.6028,-4.6069,-4.6062,-4.6058,-4.6055,-4.5875,-4.5875,0,0,0,0,0,0,-4.6698,-4.6666,-4.6486,-4.6476,-4.6574,-4.6452,-4.6431,-4.6393,-4.6274,-4.6256,-4.6326,-4.6322,-4.6159,-4.6143,-4.6127,-4.6063,-4.6061,-4.6054,-4.605,-4.5876,-4.5875,-4.5875,0,0,0,0,0,0,-4.6703,-4.6683,-4.6493,-4.6569,-4.6543,-4.6448,-4.6406,-4.639,-4.6355,-4.6255,-4.6237,-4.6309,-4.6158,-4.6138,-4.6067,-4.6056,-4.6051,-4.6044,-4.5876,-4.5876,-4.5875,-4.5938,0,0,0,0,0,0,-4.6711,-4.6685,-4.6671,-4.6569,-4.6539,-4.6439,-4.6405,-4.6386,-4.6344,-4.6337,-4.6234,-4.6217,-4.6157,-4.6078,-4.606,-4.6046,-4.6039,-4.5877,-4.5876,-4.5875,-4.5936,-4.594,-4.5942,0,0,0,0,0,-4.672,-4.6695,-4.667,-4.6649,-4.6519,-4.6439,-4.6421,-4.6355,-4.6343,-4.6325,-4.626,-4.622,-4.606,-4.6072,-4.605,-4.6034,-4.5877,-4.5876,-4.5875,-4.5935,-4.5939,-4.5942,0,0,0,0,0,0,-4.6796,-4.6681,-4.6652,-4.6595,-4.6528,-4.6425,-4.6401,-4.6362,-4.6295,-4.6291,-4.6209,-4.6186,-4.6122,-4.607,-4.6085,-4.5981,-4.5964,-4.5959,-4.6017,-4.602,-4.6023,-4.6036,-4.6033,0,0,0,0,0,-4.6807,-4.6755,-4.6655,-4.6614,-4.6581,-4.6497,-4.646,-4.6414,-4.634,-4.631,-4.624,-4.6167,-4.6099,-4.6057,-4.599,-4.5929,-4.5901,-4.5906,-4.5909,-4.5912,-4.5908,-4.5865,-4.5864,-4.5872,-4.5872,-4.5872,0,0,-4.6828,-4.6758,-4.673,-4.6627,-4.657,-4.6513,-4.6474,-4.6417,-4.6372,-4.6301,-4.6229,-4.6175,-4.6087,-4.602,-4.5986,-4.5975,-4.5899,-4.5911,-4.5914,-4.5908,-4.5864,-4.5863,-4.5863,-4.5871,-4.5871,-4.5872,0,0,-4.6836,-4.678,-4.6737,-4.668,-4.6593,-4.6536,-4.6526,-4.6428,-4.6389,-4.6316,-4.6259,-4.6203,-4.6091,-4.6029,-4.5983,-4.5962,-4.5921,-4.5943,-4.5957,-4.5917,-4.5916,-4.5915,-4.5903,-4.59,-4.5939,-4.5939,-4.5939,0,-4.6872,-4.6788,-4.6719,-4.6664,-4.6618,-4.6551,-4.6504,-4.6451,-4.6346,-4.6314,-4.6303,-4.6156,-4.6093,-4.6007,-4.6002,-4.5968,-4.5949,-4.5954,-4.5922,-4.5921,-4.5918,-4.5906,-4.5902,-4.5942,-4.5942,-4.5941,-4.5941,0,-4.6834,-4.6776,-4.6751,-4.6652,-4.6603,-4.6552,-4.6471,-4.6429,-4.6386,-4.6329,-4.6252,-4.6173,-4.6086,-4.6062,-4.602,-4.5968,-4.5963,-4.5939,-4.592,-4.5922,-4.5908,-4.5903,-4.5946,-4.5945,-4.5944,-4.5944,0,0,-4.6888,-4.6749,-4.6741,-4.6693,-4.659,-4.6542,-4.6485,-4.6401,-4.6365,-4.6293,-4.624,-4.6144,-4.6118,-4.6066,-4.6015,-4.598,-4.5962,-4.5958,-4.5955,-4.5958,-4.5894,-4.5911,-4.5907,-4.5934,-4.5933,-4.5932,-4.5899,0,-4.6879,-4.6778,-4.6712,-4.6635,-4.6577,-4.651,-4.6459,-4.6388,-4.6332,-4.6271,-4.6207,-4.6139,-4.6113,-4.608,-4.6042,-4.5973,-4.5947,-4.5974,-4.5879,-4.5877,-4.5902,-4.5901,-4.592,-4.5894,-4.5894,-4.5893,-4.5893,0,-4.6857,-4.6787,-4.6705,-4.6604,-4.6577,-4.6534,-4.6448,-4.6393,-4.6308,-4.6269,-4.6208,-4.6156,-4.6087,-4.6075,-4.5976,-4.5996,-4.5953,-4.5912,-4.5909,-4.5896,-4.5884,-4.5884,-4.5884,-4.5879,-4.5885,-4.5885,-4.5886,0,-4.69,-4.6786,-4.672,-4.6681,-4.6563,-4.6533,-4.6481,-4.6397,-4.6349,-4.6273,-4.624,-4.6157,-4.6111,-4.6045,-4.5969,-4.5968,-4.5876,-4.5859,-4.5838,-4.5839,-4.5821,-4.5823,-4.581,-4.5798,-4.5798,-4.5798,-4.5798,0,-4.6896,-4.6847,-4.6737,-4.6697,-4.6638,-4.656,-4.6502,-4.6444,-4.6369,-4.6312,-4.6248,-4.6196,-4.61,-4.6034,-4.5974,-4.5898,-4.5879,-4.5842,-4.5826,-4.5846,-4.585,-4.5815,-4.5814,-4.5797,-4.5797,-4.5797,-4.5797,0,-4.6934,-4.6859,-4.6782,-4.6675,-4.6647,-4.6608,-4.6514,-4.6469,-4.6408,-4.6336,-4.6315,-4.6218,-4.6136,-4.6054,-4.5944,-4.5903,-4.5827,-4.5808,-4.5857,-4.5848,-4.5829,-4.5831,-4.5792,-4.5781,-4.578,-4.578,-4.578,0,-4.6936,-4.6896,-4.6784,-4.6743,-4.6693,-4.6627,-4.6577,-4.6496,-4.6446,-4.6344,-4.631,-4.6224,-4.6151,-4.6023,-4.5939,-4.5853,-4.5829,-4.5821,-4.5815,-4.5835,-4.5823,-4.5826,-4.5819,-4.5823,-4.5823,-4.5824,-4.5824,0,-4.6944,-4.6908,-4.6841,-4.6759,-4.6701,-4.6632,-4.656,-4.6529,-4.6433,-4.6379,-4.6296,-4.6239,-4.6125,-4.6038,-4.5941,-4.5883,-4.5835,-4.5826,-4.5816,-4.5835,-4.5864,-4.5844,-4.5861,-4.5827,-4.5827,-4.5827,-4.5827,-4.5827,-4.6961,-4.6921,-4.6835,-4.676,-4.6697,-4.6631,-4.6582,-4.6514,-4.6444,-4.6347,-4.6302,-4.6216,-4.6126,-4.5991,-4.5933,-4.5861,-4.5849,-4.5836,-4.5831,-4.5829,-4.5831,-4.5877,-4.5844,-4.5844,-4.5843,-4.5843,-4.5843,0,-4.6964,-4.6904,-4.6836,-4.6738,-4.6677,-4.664,-4.6557,-4.6507,-4.6434,-4.6355,-4.6283,-4.6184,-4.6098,-4.6007,-4.5914,-4.5874,-4.5849,-4.5852,-4.5853,-4.5839,-4.585,-4.5866,-4.5873,-4.5873,-4.5873,-4.5873,-4.5873,-4.5873,-4.6958,-4.6887,-4.6839,-4.6733,-4.6673,-4.659,-4.6545,-4.6481,-4.6417,-4.631,-4.6238,-4.618,-4.6094,-4.5994,-4.5911,-4.5886,-4.5853,-4.5861,-4.5829,-4.5841,-4.5839,-4.5837,-4.5852,-4.5855,-4.5855,-4.5823,-4.5823,-4.5823]}]]